"Pseudo-MPEC" for C5R83R2

Created 2021 Jun 13 4:07:16 UT using Find_Orb

Click here for an explanation of pseudo-MPECs

 
 Astrometry: 
     C5R83R2  C2021 06 11.34535520 43 17.71 -07 45 40.9    ~6B97 19.64GVNEOCPG96
     C5R83R2  C2021 06 11.35571020 43 30.69 -07 46 15.7    ~6B97 20.09GVNEOCPG96
     C5R83R2  C2021 06 11.36089220 43 37.21 -07 46 33.8    ~6B97 20.07GVNEOCPG96
     C5R83R2 KC2021 06 11.39010020 44 13.55 -07 48 11.2    ~6BA7 20.09GVNEOCPI52
     C5R83R2 KC2021 06 11.39068020 44 14.25 -07 48 13.7    ~6BA7 20.56GVNEOCPI52
     C5R83R2 KC2021 06 11.39126320 44 14.97 -07 48 15.5    ~6BA7 20.24GVNEOCPI52
     C5R83R2 KC2021 06 11.39184220 44 15.70 -07 48 17.0    ~6BA7 20.13GVNEOCPI52
     C5R83R2 KC2021 06 11mVbQ\1i:P_Sbs'W(1ViaUHiT/]-Nh*Q+@uZFwtG*6t1GC$F^3nMg474
     C5R83R2 KC2021 06 11#dN+-Oi8Z0T/DU`k/vVSyZS7GGh$]=djFS(Z=6jbkPZGuixRF+QZ474
     C5R83R2 KC2021 06 11^C\_aJcDgM4g[pHx-l`xvurdxJd)Uygx[L:+i8MqMnRwP*bk]9f]474
     C5R83R2  C2021 06 11e*55oDn_w)174TO;KV0#..8iyO\?fG#!6r?Z@$1#iH8DR-ob=MpDN51
     C5R83R2  C2021 06 11[cg48I-Yp0Z`]T@#XR[TsF`o#xvMBW6cE)fRb\cvBFP#cH^eW1eqN51
     C5R83R2 hC2021 06 12lZtjWHfh8O4A;@]Q)ZM)0C-slE8#W#tI8ImIKYkc.%_#v.)V[3A$L01
     C5R83R2 hC2021 06 12tnJ?aMPdSV%F%P%qmgPRDP)R4_3!Zlu)njDy.FReKyDUXoHUD*^QL01
     C5R83R2 IC2021 06 12wdsXVnaM=+qp9qH$v!#+4rS4rb2#FcuDNoV^Astrometry=qeZ6PL01
     C5R83R2 KC2021 06 12oaSt7TQBhIvVB8iy_,t]4i9M-d8A@)L5j%c(3:$VdT2`mU_Rb3ivB37
     C5R83R2 KC2021 06 12#(IdF+fE1Uij?K$YP4w*7wVP)rdrHATL+hj@gVv0Fo\J(28p9=HoB37
     C5R83R2 KC2021 06 12n+A2$iS2o8g7\-$8]5_,Kc57;-;2/d;_ls(E+x]r5tZn2q]K$.59B37
     C5R83R2 |C2021 06 12Ek.,`@J!1/m*7m5iPb%$vM7m0Kr+=vL#\ms`H*I;4;.$*9fcq6./807
     C5R83R2 |C2021 06 12F%50S5a9wM2^O=aj+S/-FOJ=kaU-+DowoVW.T^ul3lSXwV1a=1jg807
     C5R83R2 |C2021 06 12(\(.k6m5pc2e?DNs(#?ostFredacted;)_-pxclickAx4Ja%:Tn0807
     C5R83R2 KC2021 06 12.33268721 04 07.73 -08 36 44.7    ~6C8M 20.76GVNEOCPI52
     C5R83R2 KC2021 06 12.33360221 04 08.80 -08 36 47.3    ~6C8M 20.07GVNEOCPI52
     C5R83R2 KC2021 06 12.33451521 04 09.88 -08 36 49.7    ~6C8M 21.13GVNEOCPI52
     C5R83R2 KC2021 06 12=O7J#d-*IO#wv`\]`,here5'^#QE\kTPUK1+b5bMBi1Er4BHt$`4H21
     C5R83R2 KC2021 06 12.33543021 04 10.96 -08 36 52.6    ~6C8M 20.63GVNEOCPI52
     C5R83R2 KC2021 06 12du;ISmH58Vfn(QyDfaq/*(TWpQ%DUeXt;twnAy]YV#M^T(uhT*L6H21
     C5R83R2 KC2021 06 128)ai/+yNdMi8J73Iul%xt=-(B.fIDXR_;kUj/(3!RK4UZ[RTR_/RH21
     C5R83R2 KC2021 06 12AQ:-_f-xhHiClR%-W+A2+VG]0ws,%GLY`lf^Zi(W[4\;Bm=for%+H21
     C5R83R2 KC2021 06 12s'C^'@Wg^\4dtV\3jKexplanation;!aO]VK*Widbbk_L%X9nN(0H21
     C5R83R2 KC2021 06 13.02029121 17 46.69 -09 08 42.4    ~6D27 19.7 GVNEOCPI93
     C5R83R2 KC2021 06 13.03829321 18 06.93 -09 09 31.9    ~6D27 20.4 GVNEOCPI93

Station data:
(474) Mount John Observatory, Lake Tekapo  (S43.987388 E170.464960)  New
   Zealand.  Observers A. C. Gilmore, P. M. Kilmartin. Measurer P. M.
   Kilmartin. 1.0-m f/7.7 reflector + CCD.
(807) Cerro Tololo Observatory, La Serena  (S30.169136 W70.805900)  Chile.
(B37) Obs. de L' Ametlla del Valles, Barcelona  (N41.651215 E2.259340)  Spain.
(G96) Mt. Lemmon Survey  (N32.442754 W110.788720)  US/Arizona.  Observers T.
   A. Pruyne, B. M. Africano, E. J. Christensen, G. A. Farneth, D. C. Fuls,
   A. R. Gibbs, A. D. Grauer, H. Gröller, J. A. Johnson, R. A. Kowalski, S.
   M. Larson, G. J. Leonard, D. Rankin, R. L. Seaman, F. C. Shelly. 1.5-m
   reflector + 10K CCD.
(H21) Astronomical Research Observatory, Westfield  (N39.483057 W87.968270)
   US/Illinois. 0.76-m f/3.0 astrograph + CCD.
(I52) Steward Observatory, Mt. Lemmon Station  (N32.442547 W110.788920)
   US/Arizona.  Observers T. A. Pruyne, B. M. Africano, E. J. Christensen, G.
   A. Farneth, D. C. Fuls, A. R. Gibbs, A. D. Grauer, H. Gröller, J. A.
   Johnson, R. A. Kowalski, S. M. Larson, G. J. Leonard, D. Rankin, R. L.
   Seaman, F. C. Shelly. 1.0-m reflector + CCD.
(I93) St Pardon de Conques  (N44.558710 W0.203000)  France.  Observer F.
   Losse. 0.40-m f/3.7 reflector + CCD.
(L01) Višnjan Observatory, Tičan  (N45.290900 E13.749300)  Croatia.
   Observers K. Korlević, E. Pettarin. Measurer E. Pettarin. 1.0-m f/2.9
   reflector + CCD.
(N51) GROWTH India Telescope, IAO, Hanle  (N32.779244 E78.964610)  India.

Orbital elements:  C5R83R2
   Perihelion 2021 Jun 19.890007 +/- 0.0116952 TT = 21:21:36 (JD 2459385.390007)
Epoch 2021 Jun 13.0 TT = JDT 2459378.5   Earth MOID: 0.0245   Ma: 0.0652
M 358.19111756 +/- 0.0112369        (J2000 ecliptic)          AutoNEOCP
n   0.26253710 +/- 0.00143526       Peri.  184.04557 +/- 0.0140864
a   2.41551042 +/- 0.00880336       Node    88.19989 +/- 0.0065754
e   0.5692857 +/- 0.0015448         Incl.    4.54632 +/- 0.0084306
P   3.75                   H 25.0   G  0.15   U  8.3  
q 1.04039466 +/- 6.05098e-5    Q 3.79062618 +/- 0.0175855
From 32 observations 2021 June 11-13 (40.6 hr); mean residual 0".98
Residuals in arcseconds: 
210611 G96  .24-  .12+    210611 N51  3.6-  1.1+    210612 I52  .49+  .40-    
210611 G96  .07+  .32+    210612 L01  .18+  .46-    210612 I52  .54+  .06-    
210611 G96  .77+  .31-    210612 L01  .82+  .03-    210612 H21  .49+  .22-    
210611 I52  .61+  .22+    210612 L01  1.0+  .64+    210612 I52  .55+  .22-    
210611 I52  .32+  .34-    210612 B37  .94+  3.6-    210612 H21  .74+  .27-    
210611 I52  .27+  .20-    210612 B37  1.5-  .50+    210612 H21  .78+  .32-    
210611 I52  .44+  .23+    210612 B37  .69-  1.3+    210612 H21  .66+  .09-    
210611 474  1.2+  .46+    210612 807  .22+  .08+    210612 H21  .42+  .10-    
210611 474  .66+  .09+    210612 807  .80+  .19+    210613 I93  .43-  .82+    
210611 474  .45+  .31-    210612 807  .46+  .32+    210613 I93  .61-  .14-    
210611 N51  4.1-  .27+    210612 I52  .63+  .54-    

Ephemerides (geocentric):
Date (UTC) HH   RA              Dec         delta   r     elong  mag " sig PA
---- -- -- --  -------------   -----------  ------ ------ -----  --- ---- ---
2021 06 13 04  21 20 29.154   -09 12 50.61  .05130 1.0439 122.3 20.7 .338 139
2021 06 13 05  21 21 16.859   -09 14 36.79  .05139 1.0439 122.1 20.7 .343 139
2021 06 13 06  21 22 04.401   -09 16 22.26  .05148 1.0438 122.0 20.7 .347 139
2021 06 13 07  21 22 51.777   -09 18 07.02  .05157 1.0438 121.9 20.7 .352 138
2021 06 13 08  21 23 38.988   -09 19 51.09  .05166 1.0437 121.8 20.7 .356 138
2021 06 13 09  21 24 26.034   -09 21 34.46  .05175 1.0437 121.6 20.7 .361 138
2021 06 13 10  21 25 12.914   -09 23 17.14  .05184 1.0436 121.5 20.7 .365 138
2021 06 13 11  21 25 59.629   -09 24 59.12  .05193 1.0436 121.4 20.7 .370 137
2021 06 13 12  21 26 46.177   -09 26 40.41  .05202 1.0436 121.2 20.7 .375 137
2021 06 13 13  21 27 32.559   -09 28 21.01  .05211 1.0435 121.1 20.7 .380 137
2021 06 13 14  21 28 18.775   -09 30 00.92  .05221 1.0435 121.0 20.7 .385 137
2021 06 13 15  21 29 04.824   -09 31 40.15  .05230 1.0434 120.9 20.7 .390 136
2021 06 13 16  21 29 50.706   -09 33 18.70  .05240 1.0434 120.7 20.8 .395 136
2021 06 13 17  21 30 36.421   -09 34 56.57  .05249 1.0434 120.6 20.8 .400 136
2021 06 13 18  21 31 21.970   -09 36 33.76  .05259 1.0433 120.5 20.8 .405 135
2021 06 13 19  21 32 07.351   -09 38 10.28  .05268 1.0433 120.4 20.8 .410 135
2021 06 13 20  21 32 52.564   -09 39 46.12  .05278 1.0432 120.2 20.8 .415 135
2021 06 13 21  21 33 37.610   -09 41 21.30  .05288 1.0432 120.1 20.8 .420 135
2021 06 13 22  21 34 22.489   -09 42 55.81  .05298 1.0432 120.0 20.8 .425 134
2021 06 13 23  21 35 07.201   -09 44 29.66  .05307 1.0431 119.9 20.8 .431 134
2021 06 14 00  21 35 51.744   -09 46 02.84  .05317 1.0431 119.7 20.8 .436 134
2021 06 14 01  21 36 36.121   -09 47 35.37  .05327 1.0431 119.6 20.8 .441 133
2021 06 14 02  21 37 20.329   -09 49 07.24  .05337 1.0430 119.5 20.8 .447 133
2021 06 14 03  21 38 04.370   -09 50 38.46  .05347 1.0430 119.4 20.8 .452 133
2021 06 14 04  21 38 48.244   -09 52 09.03  .05357 1.0429 119.3 20.8 .458 133
2021 06 14 05  21 39 31.950   -09 53 38.95  .05368 1.0429 119.1 20.8 .463 132
2021 06 14 06  21 40 15.488   -09 55 08.23  .05378 1.0429 119.0 20.9 .469 132
2021 06 14 07  21 40 58.860   -09 56 36.87  .05388 1.0428 118.9 20.9 .475 132
2021 06 14 08  21 41 42.063   -09 58 04.88  .05398 1.0428 118.8 20.9 .480 132
2021 06 14 09  21 42 25.100   -09 59 32.25  .05409 1.0428 118.7 20.9 .486 131
2021 06 14 10  21 43 07.969   -10 00 58.98  .05419 1.0427 118.6 20.9 .492 131
2021 06 14 11  21 43 50.672   -10 02 25.09  .05430 1.0427 118.4 20.9 .498 131
2021 06 14 12  21 44 33.207   -10 03 50.58  .05440 1.0427 118.3 20.9 .503 130
2021 06 14 13  21 45 15.576   -10 05 15.44  .05451 1.0426 118.2 20.9 .509 130
2021 06 14 14  21 45 57.778   -10 06 39.68  .05462 1.0426 118.1 20.9 .515 130
2021 06 14 15  21 46 39.814   -10 08 03.31  .05472 1.0425 118.0 20.9 .521 130
2021 06 14 16  21 47 21.683   -10 09 26.33  .05483 1.0425 117.9 20.9 .527 129
2021 06 14 17  21 48 03.386   -10 10 48.74  .05494 1.0425 117.8 20.9 .533 129
2021 06 14 18  21 48 44.924   -10 12 10.54  .05505 1.0424 117.7 20.9 .539 129
2021 06 14 19  21 49 26.295   -10 13 31.74  .05516 1.0424 117.5 20.9 .545 129
2021 06 14 20  21 50 07.502   -10 14 52.34  .05526 1.0424 117.4 21.0 .551 128
2021 06 14 21  21 50 48.543   -10 16 12.35  .05537 1.0423 117.3 21.0 .557 128
2021 06 14 22  21 51 29.418   -10 17 31.77  .05548 1.0423 117.2 21.0 .563 128
2021 06 14 23  21 52 10.129   -10 18 50.59  .05560 1.0423 117.1 21.0 .569 128
2021 06 15 00  21 52 50.676   -10 20 08.84  .05571 1.0423 117.0 21.0 .576 127
2021 06 15 01  21 53 31.058   -10 21 26.50  .05582 1.0422 116.9 21.0 .582 127
2021 06 15 02  21 54 11.277   -10 22 43.58  .05593 1.0422 116.8 21.0 .588 127
2021 06 15 03  21 54 51.331   -10 24 00.08  .05604 1.0422 116.7 21.0 .594 127